Weather History for KIGM - March, 2014

Change the Weather History Date:

Wednesday, March 12, 2014

  Actual Average Record
Temperature  
Mean Temperature 52 °F 51 °F  
Max Temperature 68 °F 65 °F 82 °F (2007)
Min Temperature 35 °F 37 °F 24 °F (1954)
Degree Days  
Heating Degree Days 13 14  
Month to date heating degree days 132 182  
Since 1 July heating degree days 2454 2595  
Cooling Degree Days 0 0  
Month to date cooling degree days 0 0  
Year to date cooling degree days 0 0  
Growing Degree Days 2 (Base 50)    
Moisture  
Dew Point 14 °F    
Average Humidity 28    
Maximum Humidity 44    
Minimum Humidity 11    
Precipitation  
Precipitation 0.00 in 0.03 in 1.79 in (1973)
Month to date precipitation 0.11 0.39  
Year to date precipitation 0.55 2.55  
Sea Level Pressure  
Sea Level Pressure 29.97 in    
Wind  
Wind Speed 9 mph (NE)    
Max Wind Speed 16 mph    
Max Gust Speed 23 mph    
Visibility 10 miles    
Events      
T = Trace of Precipitation, MM = Missing Value Source: NWS Daily Summary

Daily Weather History Graph

Daily Weather History Graph

Search for Another Location

Airport or City:

Trip Planner

Search our weather history database for the weather conditions in past years. The results will help you decide how hot, cold, wet, or windy it might be!

Date:

Astronomy

Mar. 12, 2014 Rise Set
Actual Time 6:50 AM MST 6:40 PM MST
Civil Twilight 6:25 AM MST 7:06 PM MST
Nautical Twilight 5:55 AM MST 7:35 PM MST
Astronomical Twilight 5:26 AM MST 8:05 PM MST
Moon 3:21 PM MST (3/12) 4:18 AM MST (3/12)
Length of Visible Light 12h 41m
Length of Day
11h 50m
Waxing Gibbous, 86% of the Moon is Illuminated
Mar 12
Waxing Gibbous
Mar 16
Full
Mar 23
Last Quarter
Mar 30
New
Apr 7
First Quarter

Hourly Weather History & Observations

Time (MST) Temp. Windchill Dew Point Humidity Pressure Visibility Wind Dir Wind Speed Gust Speed Precip Events Conditions
12:51 AM 41.0 °F 34.3 °F 12.0 °F 31% 30.01 in 10.0 mi East 11.5 mph - N/A   Clear
1:51 AM 41.0 °F 35.2 °F 14.0 °F 33% 30.01 in 10.0 mi East 9.2 mph - N/A   Clear
2:51 AM 37.9 °F 32.1 °F 16.0 °F 41% 30.00 in 10.0 mi East 8.1 mph - N/A   Clear
3:51 AM 37.0 °F 30.4 °F 16.0 °F 42% 30.00 in 10.0 mi ENE 9.2 mph - N/A   Clear
4:51 AM 37.9 °F 32.1 °F 17.1 °F 43% 30.00 in 10.0 mi NE 8.1 mph - N/A   Clear
5:51 AM 37.0 °F 31.0 °F 17.1 °F 44% 30.01 in 10.0 mi NE 8.1 mph - N/A   Clear
6:51 AM 37.9 °F 32.7 °F 16.0 °F 41% 30.04 in 10.0 mi NE 6.9 mph - N/A   Clear
7:51 AM 43.0 °F 39.5 °F 17.1 °F 35% 30.04 in 10.0 mi ENE 5.8 mph - N/A   Clear
8:51 AM 51.1 °F - 15.1 °F 24% 30.05 in 10.0 mi North 13.8 mph - N/A   Clear
9:51 AM 55.0 °F - 12.9 °F 19% 30.04 in 10.0 mi NNE 5.8 mph - N/A   Clear
10:51 AM 59.0 °F - 12.9 °F 16% 30.03 in 10.0 mi NNE 15.0 mph - N/A   Clear
11:51 AM 61.0 °F - 12.9 °F 15% 30.01 in 10.0 mi North 11.5 mph - N/A   Clear
12:51 PM 64.0 °F - 12.9 °F 14% 29.99 in 10.0 mi North 15.0 mph - N/A   Clear
1:51 PM 64.9 °F - 12.0 °F 13% 29.95 in 10.0 mi North 11.5 mph 17.3 mph N/A   Clear
2:51 PM 66.9 °F - 10.9 °F 11% 29.93 in 10.0 mi NNW 9.2 mph 17.3 mph N/A   Clear
3:51 PM 66.0 °F - 10.9 °F 12% 29.92 in 10.0 mi WNW 3.5 mph - N/A   Clear
4:51 PM 66.9 °F - 10.9 °F 11% 29.91 in 10.0 mi Calm Calm - N/A   Clear
5:51 PM 64.0 °F - 12.0 °F 13% 29.91 in 10.0 mi SW 8.1 mph - N/A   Clear
6:51 PM 57.9 °F - 12.9 °F 17% 29.93 in 10.0 mi SSW 9.2 mph - N/A   Clear
7:51 PM 54.0 °F - 12.9 °F 20% 29.94 in 10.0 mi SE 3.5 mph - N/A   Clear
8:51 PM 48.9 °F - 14.0 °F 25% 29.94 in 10.0 mi East 9.2 mph - N/A   Clear
9:51 PM 51.1 °F - 12.9 °F 22% 29.93 in 10.0 mi East 8.1 mph - N/A   Clear
10:51 PM 48.0 °F - 15.1 °F 27% 29.92 in 10.0 mi SE 8.1 mph - N/A   Clear
11:51 PM 50.0 °F - 16.0 °F 26% 29.91 in 10.0 mi ESE 8.1 mph - N/A   Clear